User: anonymous   Login
Location: St Andrew
(49.4460°N, 2.5750°W)
Time: 12:04:32
(UTC+00:00)
Language:

Iridium 66 - Orbit

View from above orbital plane
View from above orbital plane
View from above satellite
View from above satellite

Ground track
Ground track

The orbit data is extracted from the following two-line orbital elements,

1 25289U 98021E   15027.56126538  .00000099  00000-0  28163-4 0   394
2 25289 086.3936 228.0829 0001946 104.3086 307.6735 14.34217583880089
Epoch (UTC): 27 January 2015 13:28:13
Eccentricity: 0.0001946
inclination: 86.3936°
perigee height: 776 km
apogee height: 779 km
right ascension of ascending node: 228.0829°
argument of perigee: 104.3086°
revolutions per day: 14.34217583
mean anomaly at epoch: 307.6735°
orbit number at epoch: 88008

The dashed part of the orbit path shows where the satellite is in the earth's shadow,  

DLR